Home   Weather   Hudson   Past weeks

Flag for USA Past Weather in Hudson, Wisconsin, USA — Yesterday and Last 2 Weeks

Now
50 °F

Sunny.


Feels Like: 46 °F
Forecast: 42 / 66 °F
Wind: 9 mph from Northeast

Location: St. Paul Downtown Holman Field

Current Time: Apr 23, 2017 at 9:22:27 am

Latest Report: Apr 23, 2017 at 7:53 am


Visibility: 10 mi

Pressure: 30.11 "Hg

Humidity: 74%

Dew Point: 42 °F

Location of HudsonLocation

Past Weather in Hudson — Graph

°F

Hudson Temperature Yesterday

Maximum temperature yesterday: 68 °F (at 3:53 pm)
Minimum temperature yesterday: 39 °F (at 4:53 am)
Average temperature yesterday: 54 °F

High & Low Weather Summary for the Past Weeks

 TemperatureHumidityPressure
High72 °F (Apr 9, 1:53 pm)100% (Apr 14, 11:53 pm)30.34 "Hg (Apr 14, 11:53 pm)
Low32 °F (Apr 11, 2:44 am)24% (Apr 16, 5:53 pm)29.49 "Hg (Apr 8, 6:53 pm)
Average51 °F74%30.01 "Hg
* Reported Apr 8 7:53 am — Apr 23 7:53 am, Hudson, Weather by CustomWeather, © 2017

Note: Actual official high and low records may vary slightly from our data, if they occured in-between our weather recording intervals... More about our weather records

Advertising

Hudson Weather History for the Previous 24 Hours

Scroll right to see more
 ConditionsComfort  
Time TempWeatherWind HumidityBarometerVisibility
7:53 am
Sun, Apr 23
50 °FSunny.9 mph74%30.11 "Hg10 mi
6:53 am47 °FSunny.6 mph74%30.10 "Hg10 mi
5:53 am47 °FClear.No wind71%30.07 "Hg10 mi
4:53 am49 °FClear.3 mph66%30.06 "Hg10 mi
3:53 am45 °FClear.3 mph86%30.07 "Hg9 mi
2:53 am49 °FClear.No wind77%30.07 "Hg9 mi
1:53 am48 °FClear.No wind83%30.08 "Hg9 mi
12:53 am49 °FClear.No wind80%30.08 "Hg10 mi
11:53 pm
Sat, Apr 22
50 °FClear.No wind77%30.09 "Hg10 mi
10:53 pm52 °FClear.No wind72%30.10 "Hg10 mi
9:53 pm57 °FClear.No wind58%30.10 "Hg10 mi
8:53 pm60 °FClear.5 mph41%30.10 "Hg10 mi
7:53 pm63 °FSunny.9 mph34%30.10 "Hg10 mi
6:53 pm66 °FSunny.12 mph31%30.12 "Hg10 mi
5:53 pm67 °FSunny.12 mph32%30.13 "Hg10 mi
4:53 pm68 °FSunny.9 mph28%30.13 "Hg10 mi
3:53 pm68 °FSunny.15 mph28%30.15 "Hg10 mi
2:53 pm67 °FSunny.3 mph29%30.18 "Hg10 mi
12:53 pm64 °FSunny.No wind30%30.22 "Hg10 mi
11:53 am63 °FSunny.12 mph33%30.23 "Hg10 mi
10:53 am61 °FSunny.7 mph32%30.24 "Hg10 mi
9:53 am58 °FSunny.8 mph33%30.27 "Hg10 mi
Weather by CustomWeather, © 2017

See weather overviewHow to use our weather pages